Location: Home
(42.5358°N, 72.7383°W)
Time: 09:37:50
(UTC-05:00)

Vanguard 2 - Pass Details

Date: 30 November 2021
Orbit: 553 x 2936 km, 32.9° (Epoch: 21 January)

Event Time Altitude Azimuth Distance (km) Brightness Sun altitude
Rises 20:19:49 0° 268° (W) 4,957 12.4 -43.7°
Reaches altitude 10° 20:23:51 10° 253° (WSW) 4,346 11.8 -44.4°
Maximum altitude 20:32:17 21° 210° (SSW) 4,134 11.2 -45.9°
Enters shadow 20:39:06 16° 180° (S) 4,924 11.4 -47.2°
Drops below altitude 10° 20:42:55 10° 169° (S) 5,564 - -47.8°
Sets 20:49:14 0° 156° (SSE) 6,743 - -49.0°
